Flag for U.S.A. Weather past 2 weeks in South Bend, Indiana, U.S.A.

Now
59 °F

Sunny.


Feels Like: 59 °F
Forecast: 56 / 79 °F
Wind: No wind

Location: Michiana Regional Airport

Current Time: Jul 4, 2015 at 9:02:57 AM

Latest Report: Jul 4, 2015 at 7:54 AM


Visibility: 7 mi

Pressure: 29.99 "Hg

Humidity: 87%

Dew point: 55 °F

Location of South BendLocation

Historic Weather in South Bend — Graph

°F

South Bend temperature yesterday

Maximum temperature yesterday: 76 °F (at 3:54 PM)
Minimum temperature yesterday: 58 °F (at 1:54 AM)
Average temperature yesterday: 67 °F

Past Weeks' High & Low Weather Summary

 TemperatureHumidityPressure
High84 °F (Jun 22, 4:54 PM)97% (Jun 22, 7:59 AM)30.18 "Hg (Jun 22, 7:59 AM)
Low54 °F (Jun 28, 5:54 AM)36% (Jun 28, 2:54 PM)29.73 "Hg (Jun 23, 12:54 AM)
Average69 °F74%29.93 "Hg
* Reported Jun 19 7:54 AM — Jul 4 7:54 AM, South Bend, Weather by CustomWeather, © 2015

Note: Actual official high and low records may vary slightly from our data, if they occured in-between our weather recording intervals... More about our weather records

Advertising

South Bend weather history for previous 24 hours

 ConditionsComfort  
Time TempWeatherWind HumidityBarometerVisibility
7:54 AM
Sat, Jul 4
59 °FSunny.No wind87%29.99 "Hg7 mi
6:54 AM54 °FClear.No wind93%29.98 "Hg7 mi
5:54 AM55 °FClear.No wind90%29.96 "Hg10 mi
4:54 AM55 °FClear.No wind90%29.96 "Hg9 mi
3:54 AM57 °FClear.No wind87%29.95 "Hg8 mi
2:54 AM58 °FClear.No wind87%29.95 "Hg10 mi
1:54 AM59 °FClear.No wind84%29.96 "Hg10 mi
12:54 AM59 °FClear.No wind84%29.96 "Hg10 mi
11:54 PM
Fri, Jul 3
62 °FClear.No wind78%29.94 "Hg10 mi
10:54 PM63 °FClear.No wind75%29.94 "Hg10 mi
9:54 PM64 °FSunny.5 mph73%29.93 "Hg10 mi
8:54 PM68 °FSunny.9 mph63%29.91 "Hg10 mi
7:54 PM72 °FSunny.8 mph57%29.91 "Hg10 mi
6:54 PM76 °FSunny.5 mph47%29.91 "Hg10 mi
5:54 PM76 °FSunny.No wind40%29.91 "Hg10 mi
4:54 PM76 °FSunny.No wind48%29.92 "Hg10 mi
3:54 PM76 °FSunny.7 mph50%29.94 "Hg10 mi
2:54 PM74 °FSunny.3 mph50%29.96 "Hg10 mi
1:54 PM73 °FSunny.5 mph51%29.97 "Hg10 mi
12:54 PM73 °FSunny.8 mph51%29.97 "Hg10 mi
11:54 AM71 °FSunny.3 mph55%29.97 "Hg10 mi
10:54 AM70 °FSunny.5 mph59%29.97 "Hg10 mi
9:54 AM67 °FSunny.6 mph71%29.98 "Hg10 mi
Weather by CustomWeather, © 2015

See weather overviewHow to use our weather pages